#timestamp,LO_Frequency,Hit,StdDev 
1530082815.9,286047004.3,Y
1530082835.7,286047002.6,P
1530082855.5,286047002.2,P
1530082875.4,286047001.4,P
1530082895.2,286047003.9,Y
1530082915.0,286047000.0,P
1530082915.9,286047000.0,N
1530082935.8,286046998.3,N
1530082955.6,286047000.9,N
1530082975.5,286047000.5,N
1530082995.3,286047002.8,N
1530083015.1,286047001.4,N
1530083035.9,286047004.4,Y
1530083055.7,286046999.9,P
1530083075.6,286046999.9,N
1530083095.4,286046999.3,N
1530083115.2,286046999.3,N
1530083135.1,286046998.9,N
1530083136.0,286046998.9,N
1530083155.8,286046998.9,N
1530083175.6,286047002.8,Y
1530083195.5,286047002.5,P
1530083215.3,286047000.3,N
1530083235.2,286047001.2,N
1530083255.9,286047000.8,N
1530083275.7,286047001.0,N
1530083295.6,286047000.7,N
1530083315.4,286047000.6,N
1530083335.2,286047000.3,N
1530083355.1,286047000.5,N
1530083356.0,286047000.5,N
1530083375.8,286046998.3,N
1530083395.7,286046998.1,N
1530083415.5,286047000.2,N
1530083435.3,286046999.7,N
1530083455.2,286047000.5,N
1530083475.0,286047000.2,N
1530083475.9,286047000.2,N
1530083495.7,286047000.4,N
1530083515.6,286047000.2,N
1530083535.4,286047002.2,N
1530083555.3,286047002.2,N
1530083575.1,286047001.6,N
1530083576.0,286047001.6,N
1530083595.8,286047001.7,N
1530083615.7,286047001.9,N
1530083635.5,286047002.8,N
1530083655.3,286047000.3,N
1530083675.2,286047000.2,N
1530083695.0,286047002.4,N
1530083695.9,286047002.4,N
1530083715.8,286047000.2,N
1530083735.6,286047001.0,N
1530083755.4,286047000.4,N
1530083775.3,286047001.1,N
1530083795.1,286046999.8,N
1530083815.8,286046998.6,N
1530083835.6,286047001.1,N
1530083855.4,286047000.6,N
1530083875.3,286047000.5,N
1530083895.1,286047000.5,N
1530083915.9,286047000.8,N
1530083935.7,286047002.6,N
1530083955.5,286047002.7,N
1530083975.4,286047002.8,N
1530083995.2,286047002.8,N
1530084015.0,286046998.5,N
1530084015.9,286046998.5,N
1530084035.8,286047000.3,N
1530084055.6,286047000.4,N
1530084075.5,286047004.0,Y
1530084095.3,286047001.2,P
1530084115.1,286047000.8,P
1530084135.9,286046998.4,P
1530084155.7,286046998.1,N
1530084175.6,286046998.9,N
1530084195.4,286046999.1,N
1530084215.2,286047000.8,N
1530084235.1,286047000.5,N
1530084236.0,286047000.5,N
1530084255.8,286046998.6,N
1530084275.7,286047000.8,N
1530084295.5,286046998.8,N
1530084315.3,286046998.5,N
1530084335.2,286047000.8,N
1530084355.0,286047001.0,N
1530084355.9,286047001.0,N
1530084375.7,286047002.8,N
1530084395.6,286047002.7,N
1530084415.4,286046998.5,N
1530084435.3,286047000.6,N
1530084455.1,286047001.0,N
1530084475.8,286047002.8,N
1530084495.7,286047000.3,N
1530084515.5,286047002.5,N
1530084535.4,286047000.2,N
1530084555.2,286046999.9,N
1530084575.0,286047000.9,N
1530084575.9,286047000.9,N
1530084595.8,286046999.9,N
1530084615.6,286046998.4,N
1530084635.4,286047000.0,N
1530084655.3,286047000.1,N
1530084675.1,286047000.9,N
1530084695.9,286046999.0,N
1530084715.7,286047001.2,N
1530084735.5,286047002.2,N
1530084755.4,286047002.1,N
1530084775.2,286047001.8,N
1530084795.0,286047002.4,N
1530084796.0,286047002.4,N
1530084815.8,286047002.3,N
1530084835.6,286047000.1,N
1530084855.5,286047000.4,N
1530084875.3,286047001.0,N
1530084895.1,286047000.4,N
1530084915.9,286047000.7,N
1530084935.7,286047000.7,N
1530084955.5,286047001.2,N
1530084975.4,286047000.4,N
1530084995.2,286047000.9,N
1530085015.1,286046999.8,N
1530085016.0,286046999.8,N
1530085035.8,286047001.6,N
1530085055.6,286047002.0,N
1530085075.5,286047002.4,N
1530085095.3,286047000.2,N
1530085115.1,286047000.4,N
1530085135.9,286047002.2,N
1530085155.7,286047004.2,Y
1530085175.6,286047001.9,P
1530085195.4,286047001.4,N
1530085215.2,286047002.5,P
1530085235.1,286047002.1,Y
1530085236.0,286047002.1,P
1530085255.8,286047000.8,P
1530085275.7,286047000.4,N
1530085295.5,286047001.1,N
1530085315.3,286047000.9,N
1530085335.2,286047000.7,N
1530085355.9,286047000.5,N
1530085375.7,286047002.2,Y
1530085395.6,286047001.2,P
1530085415.4,286046998.8,P
1530085435.2,286046996.6,P
1530085455.1,286047000.8,N
1530085456.0,286047000.8,N
1530085475.8,286046998.9,N
1530085495.7,286047001.1,N
1530085515.5,286046998.5,N
1530085535.3,286047000.9,N
1530085555.2,286046998.3,N
1530085575.0,286046999.5,N
1530085575.9,286046999.5,N
1530085595.7,286046997.4,N
1530085615.6,286046997.5,N
1530085635.4,286046997.6,N
1530085655.3,286046999.3,N
1530085675.1,286046998.7,N
1530085676.0,286046998.7,N
1530085695.8,286046999.3,N
1530085715.7,286046999.0,N
1530085735.5,286046997.3,N
1530085755.3,286046996.6,N
1530085775.2,286046995.7,Y
1530085795.0,286046995.0,P
1530085795.9,286046995.0,N
1530085815.8,286046996.9,N
1530085835.6,286046999.5,N
1530085855.4,286046998.9,N
1530085875.3,286047000.3,N
1530085895.1,286046999.6,N
1530085915.9,286046996.7,N
1530085935.7,286046999.1,N
1530085955.5,286046997.2,N
1530085975.4,286046999.4,N
1530085995.2,286047000.0,N
1530086015.1,286046998.5,N
1530086016.0,286046998.5,N
1530086035.8,286046999.0,N
1530086055.6,286047000.4,N
1530086075.5,286046998.5,N
1530086095.3,286047000.2,N
1530086115.1,286046999.2,N
1530086135.9,286046996.6,N
1530086155.7,286047000.7,N
1530086175.6,286046997.1,N
1530086195.4,286046997.5,N
1530086215.2,286046999.9,N
1530086235.1,286046998.7,N
1530086236.0,286046998.7,N
1530086255.8,286046999.4,N
1530086275.7,286047001.1,N
1530086295.5,286046996.7,N
1530086315.3,286046997.5,N
1530086335.2,286046994.9,Y
1530086355.0,286046995.3,P
1530086355.9,286046995.3,N
1530086375.8,286046993.3,P
1530086395.6,286046995.7,N
